173P/Mueller 5 (2021)

Japanese version
Home page
Updated on June 11, 2023

---------------------------------------------------------------------

* Profile

* Pictures

* Orbital Elements

Epoch 2023 Feb. 25.0 TT = JDT 2460000.5
T 2021 Dec. 16.38101 TT                                 Rudenko
q   4.2165468            (2000.0)            P               Q
n   0.07224052     Peri.   29.14786     -0.61675845     -0.73597707
a   5.7097289      Node   100.38065     +0.65598165     -0.67661023
e   0.2615154      Incl.   16.48924     +0.43508285     -0.02315922
P  13.6
>From 1270 observations 1992 Dec. 18-2023 Apr. 28, mean residual 0".7.

* Magnitudes Graph

        m1 = -14 + 5 log d + 45 log r(t + 600)

---------------------------------------------------------------------

The orbital elements are published on M.P.E.C. 2023-K136.
The magnitudes graphs are made with Comet for Windows.

---------------------------------------------------------------------

Copyright(C) Seiichi Yoshida (comet@aerith.net). All rights reserved.